WST704 KFLL-MYNN

Flight info

Callsign WST704
Flight time 0h 37m
Altitude 19000
Route SNAPR2 RAJAY
Aircraft E145/M-SDFGIRW/S

Departure

Time 2026-05-06 04:08
Airport Fort Lauderdale Hollywood International Airport (KFLL)

Arrival

Time 2026-05-06 04:45
Airport Lynden Pindling International Airport (MYNN)
Time Latitude Longitude Altitude Speed Heading
2026-05-06 03:44 26.07304 -80.14745 10 ft 0 kts 70°
2026-05-06 03:58 26.07301 -80.14754 10 ft 1 kts 70°
2026-05-06 03:58 26.07297 -80.14764 10 ft 2 kts 59°
2026-05-06 03:58 26.07287 -80.14777 10 ft 2 kts 33°
2026-05-06 03:58 26.07274 -80.14783 10 ft 2 kts
2026-05-06 03:59 26.07259 -80.14783 10 ft 2 kts 346°
2026-05-06 03:59 26.07246 -80.14776 10 ft 2 kts 322°
2026-05-06 03:59 26.07236 -80.14764 10 ft 2 kts 298°
2026-05-06 03:59 26.07233 -80.14758 10 ft 0 kts 291°
2026-05-06 04:02 26.07245 -80.14784 10 ft 5 kts 299°
2026-05-06 04:02 26.07268 -80.14830 10 ft 7 kts 300°
2026-05-06 04:02 26.07315 -80.14861 10 ft 9 kts 356°
2026-05-06 04:02 26.07388 -80.14896 10 ft 17 kts 285°
2026-05-06 04:03 26.07476 -80.15028 10 ft 23 kts 315°
2026-05-06 04:03 26.07491 -80.15154 10 ft 17 kts 266°
2026-05-06 04:03 26.07492 -80.15295 10 ft 19 kts 271°
2026-05-06 04:03 26.07492 -80.15451 10 ft 21 kts 271°
2026-05-06 04:04 26.07493 -80.15627 10 ft 23 kts 270°
2026-05-06 04:04 26.07494 -80.15777 10 ft 8 kts 271°
2026-05-06 04:04 26.07494 -80.15807 10 ft 0 kts 271°
2026-05-06 04:04 26.07494 -80.15846 10 ft 10 kts 270°
2026-05-06 04:05 26.07494 -80.15970 10 ft 3 kts 268°
2026-05-06 04:05 26.07494 -80.15976 10 ft 5 kts 268°
2026-05-06 04:05 26.07493 -80.16119 10 ft 20 kts 273°
2026-05-06 04:05 26.07494 -80.16219 10 ft 13 kts 269°
2026-05-06 04:06 26.07495 -80.16337 10 ft 18 kts 273°
2026-05-06 04:06 26.07498 -80.16445 10 ft 9 kts 271°
2026-05-06 04:06 26.07501 -80.16533 10 ft 6 kts 282°
2026-05-06 04:06 26.07541 -80.16567 10 ft 11 kts 359°
2026-05-06 04:07 26.07667 -80.16557 10 ft 13 kts 20°
2026-05-06 04:07 26.07693 -80.16373 10 ft 56 kts 90°
2026-05-06 04:07 26.07689 -80.15671 10 ft 123 kts 90°
2026-05-06 04:07 26.07678 -80.14574 235 ft 151 kts 90°
2026-05-06 04:08 26.07668 -80.13356 692 ft 170 kts 88°
2026-05-06 04:08 26.07688 -80.11969 1146 ft 191 kts 88°
2026-05-06 04:08 26.07710 -80.10412 1596 ft 212 kts 88°
2026-05-06 04:08 26.07729 -80.08715 2031 ft 231 kts 88°
2026-05-06 04:09 26.07757 -80.06876 2457 ft 243 kts 88°
2026-05-06 04:09 26.07782 -80.04973 2801 ft 250 kts 88°
2026-05-06 04:09 26.07807 -80.03014 3213 ft 257 kts 88°
2026-05-06 04:09 26.07833 -80.01001 3627 ft 264 kts 88°
2026-05-06 04:10 26.08186 -79.99008 4042 ft 268 kts 71°
2026-05-06 04:10 26.08346 -79.96959 4450 ft 264 kts 101°
2026-05-06 04:10 26.07991 -79.95015 4856 ft 254 kts 92°
2026-05-06 04:10 26.07955 -79.93095 5263 ft 245 kts 89°
2026-05-06 04:11 26.07961 -79.91231 5675 ft 237 kts 88°
2026-05-06 04:11 26.07978 -79.89440 6061 ft 230 kts 88°
2026-05-06 04:11 26.07998 -79.87698 6446 ft 222 kts 88°
2026-05-06 04:11 26.08018 -79.86019 6858 ft 215 kts 88°
2026-05-06 04:12 26.08038 -79.84351 7276 ft 217 kts 88°
2026-05-06 04:12 26.08057 -79.82667 7687 ft 220 kts 88°
2026-05-06 04:12 26.08077 -79.80957 8096 ft 222 kts 88°
2026-05-06 04:12 26.08096 -79.79254 8504 ft 224 kts 87°
2026-05-06 04:13 26.08116 -79.77509 8915 ft 225 kts 87°
2026-05-06 04:13 26.08135 -79.75774 9329 ft 225 kts 87°
2026-05-06 04:13 26.08153 -79.74107 9844 ft 209 kts 87°
2026-05-06 04:13 26.08111 -79.72547 10206 ft 197 kts 95°
2026-05-06 04:14 26.07807 -79.71082 10601 ft 196 kts 108°
2026-05-06 04:14 26.07234 -79.69714 11014 ft 199 kts 121°
2026-05-06 04:14 26.06399 -79.68468 11429 ft 201 kts 133°
2026-05-06 04:14 26.05361 -79.67436 11834 ft 202 kts 146°
2026-05-06 04:15 26.04186 -79.66552 12236 ft 201 kts 139°
2026-05-06 04:15 26.03557 -79.65265 12608 ft 187 kts 92°
2026-05-06 04:15 26.03727 -79.63911 13022 ft 176 kts 73°
2026-05-06 04:15 26.03921 -79.62570 13404 ft 177 kts 88°
2026-05-06 04:16 26.03765 -79.61204 13672 ft 185 kts 99°
2026-05-06 04:16 26.03443 -79.59729 13846 ft 206 kts 103°
2026-05-06 04:16 26.03037 -79.58147 14132 ft 218 kts 104°
2026-05-06 04:16 26.02592 -79.56482 14399 ft 231 kts 105°
2026-05-06 04:17 26.02113 -79.54739 14667 ft 245 kts 105°
2026-05-06 04:17 26.01598 -79.52892 14992 ft 255 kts 105°
2026-05-06 04:17 26.01065 -79.50993 15435 ft 260 kts 105°
2026-05-06 04:17 26.00518 -79.49056 15874 ft 264 kts 105°
2026-05-06 04:18 25.99965 -79.47100 16311 ft 269 kts 105°
2026-05-06 04:18 25.99407 -79.45130 16741 ft 272 kts 105°
2026-05-06 04:18 25.98834 -79.43106 17179 ft 276 kts 105°
2026-05-06 04:18 25.98256 -79.41067 17615 ft 279 kts 105°
2026-05-06 04:19 25.97673 -79.39015 18042 ft 281 kts 104°
2026-05-06 04:19 25.97004 -79.36963 18473 ft 284 kts 108°
2026-05-06 04:19 25.96293 -79.34926 18880 ft 286 kts 109°
2026-05-06 04:19 25.95549 -79.32783 18957 ft 304 kts 109°
2026-05-06 04:20 25.94768 -79.30537 18974 ft 323 kts 109°
2026-05-06 04:20 25.93938 -79.28151 18972 ft 342 kts 109°
2026-05-06 04:20 25.93065 -79.25642 18965 ft 352 kts 109°
2026-05-06 04:20 25.92167 -79.23064 18962 ft 358 kts 109°
2026-05-06 04:21 25.91266 -79.20479 18962 ft 365 kts 109°
2026-05-06 04:21 25.90346 -79.17841 18963 ft 371 kts 109°
2026-05-06 04:21 25.89392 -79.15106 18958 ft 380 kts 109°
2026-05-06 04:21 25.88431 -79.12356 18956 ft 388 kts 109°
2026-05-06 04:22 25.87450 -79.09547 18958 ft 394 kts 109°
2026-05-06 04:22 25.86469 -79.06743 18949 ft 388 kts 109°
2026-05-06 04:22 25.85500 -79.03973 18952 ft 383 kts 109°
2026-05-06 04:23 25.83594 -78.98532 18953 ft 373 kts 109°
2026-05-06 04:23 25.82660 -78.95868 18952 ft 369 kts 109°
2026-05-06 04:23 25.81739 -78.93243 18953 ft 366 kts 109°
2026-05-06 04:23 25.80815 -78.90611 18951 ft 363 kts 109°
2026-05-06 04:24 25.79911 -78.88037 18955 ft 360 kts 109°
2026-05-06 04:24 25.78998 -78.85442 18936 ft 358 kts 109°
2026-05-06 04:24 25.78085 -78.82846 18701 ft 364 kts 109°
2026-05-06 04:24 25.77162 -78.80222 18478 ft 368 kts 109°
2026-05-06 04:25 25.76227 -78.77570 18246 ft 372 kts 110°
2026-05-06 04:25 25.75283 -78.74891 18020 ft 376 kts 110°
2026-05-06 04:25 25.74311 -78.72176 17789 ft 379 kts 113°
2026-05-06 04:25 25.72957 -78.69707 17571 ft 381 kts 123°
2026-05-06 04:26 25.71446 -78.67242 17333 ft 384 kts 123°
2026-05-06 04:26 25.69957 -78.64812 17103 ft 385 kts 123°
2026-05-06 04:26 25.68433 -78.62327 16869 ft 387 kts 123°
2026-05-06 04:26 25.66928 -78.59874 16638 ft 388 kts 123°
2026-05-06 04:27 25.65414 -78.57406 16406 ft 389 kts 124°
2026-05-06 04:27 25.63882 -78.54911 16174 ft 390 kts 124°
2026-05-06 04:27 25.62352 -78.52422 15943 ft 391 kts 124°
2026-05-06 04:27 25.60825 -78.49938 15709 ft 392 kts 124°
2026-05-06 04:28 25.59298 -78.47455 15476 ft 392 kts 124°
2026-05-06 04:28 25.57729 -78.45023 15230 ft 380 kts 131°
2026-05-06 04:28 25.55869 -78.43113 14799 ft 351 kts 140°
2026-05-06 04:28 25.54083 -78.41412 14592 ft 324 kts 140°
2026-05-06 04:29 25.52404 -78.39812 14357 ft 313 kts 140°
2026-05-06 04:29 25.50782 -78.38268 14115 ft 303 kts 140°
2026-05-06 04:29 25.49211 -78.36774 13873 ft 294 kts 140°
2026-05-06 04:29 25.47661 -78.35299 13419 ft 295 kts 140°
2026-05-06 04:30 25.46108 -78.33823 12864 ft 291 kts 141°
2026-05-06 04:30 25.44606 -78.32394 12374 ft 282 kts 141°
2026-05-06 04:30 25.43112 -78.30975 11908 ft 284 kts 141°
2026-05-06 04:30 25.41629 -78.29566 11499 ft 284 kts 141°
2026-05-06 04:31 25.40130 -78.28142 11091 ft 283 kts 141°
2026-05-06 04:31 25.38645 -78.26733 10709 ft 281 kts 141°
2026-05-06 04:31 25.37180 -78.25343 10331 ft 280 kts 141°
2026-05-06 04:31 25.35671 -78.23912 9762 ft 286 kts 141°
2026-05-06 04:32 25.34156 -78.22475 9220 ft 291 kts 141°
2026-05-06 04:32 25.32640 -78.21037 9005 ft 280 kts 141°
2026-05-06 04:32 25.31198 -78.19670 8918 ft 266 kts 141°
2026-05-06 04:32 25.30080 -78.18105 8831 ft 255 kts 112°
2026-05-06 04:33 25.29625 -78.16228 8555 ft 254 kts 102°
2026-05-06 04:33 25.29242 -78.14330 8251 ft 252 kts 102°
2026-05-06 04:33 25.28873 -78.12485 8148 ft 242 kts 102°
2026-05-06 04:33 25.28516 -78.10690 8035 ft 233 kts 103°
2026-05-06 04:34 25.28181 -78.08998 7931 ft 225 kts 103°
2026-05-06 04:34 25.27844 -78.07298 7810 ft 226 kts 103°
2026-05-06 04:34 25.27505 -78.05590 7654 ft 232 kts 103°
2026-05-06 04:34 25.27156 -78.03827 7499 ft 237 kts 102°
2026-05-06 04:35 25.26802 -78.02039 7340 ft 242 kts 102°
2026-05-06 04:35 25.26437 -78.00199 7122 ft 248 kts 103°
2026-05-06 04:35 25.26060 -77.98302 6887 ft 254 kts 103°
2026-05-06 04:35 25.25682 -77.96394 6682 ft 258 kts 103°
2026-05-06 04:36 25.25297 -77.94459 6543 ft 259 kts 103°
2026-05-06 04:36 25.24912 -77.92516 6405 ft 259 kts 103°
2026-05-06 04:36 25.24524 -77.90564 6273 ft 260 kts 103°
2026-05-06 04:36 25.24128 -77.88575 5868 ft 271 kts 103°
2026-05-06 04:37 25.23720 -77.86530 5713 ft 270 kts 103°
2026-05-06 04:37 25.23318 -77.84511 5556 ft 267 kts 103°
2026-05-06 04:37 25.22927 -77.82553 5280 ft 262 kts 103°
2026-05-06 04:37 25.22537 -77.80602 4983 ft 258 kts 103°
2026-05-06 04:38 25.22160 -77.78711 4791 ft 250 kts 103°
2026-05-06 04:38 25.21786 -77.76846 4608 ft 243 kts 103°
2026-05-06 04:38 25.21424 -77.75036 4320 ft 242 kts 103°
2026-05-06 04:38 25.21066 -77.73251 4026 ft 241 kts 102°
2026-05-06 04:39 25.20698 -77.71412 3612 ft 245 kts 102°
2026-05-06 04:39 25.20330 -77.69575 3210 ft 248 kts 102°
2026-05-06 04:39 25.19955 -77.67707 2803 ft 250 kts 102°
2026-05-06 04:39 25.19583 -77.65855 2403 ft 251 kts 102°
2026-05-06 04:40 25.19200 -77.63966 1972 ft 253 kts 104°
2026-05-06 04:40 25.18404 -77.62261 1686 ft 247 kts 129°
2026-05-06 04:40 25.17559 -77.61264 1654 ft 236 kts 134°
2026-05-06 04:40 25.16440 -77.60004 1644 ft 219 kts 134°
2026-05-06 04:41 25.15448 -77.58898 1718 ft 190 kts 135°
2026-05-06 04:41 25.14547 -77.57900 1646 ft 177 kts 135°
2026-05-06 04:41 25.13722 -77.56986 1634 ft 161 kts 135°
2026-05-06 04:41 25.12947 -77.56129 1647 ft 157 kts 135°
2026-05-06 04:42 25.12165 -77.55263 1658 ft 161 kts 135°
2026-05-06 04:42 25.11368 -77.54382 1659 ft 163 kts 136°
2026-05-06 04:42 25.10562 -77.53491 1658 ft 165 kts 135°
2026-05-06 04:42 25.09764 -77.52634 1437 ft 153 kts 136°
2026-05-06 04:43 25.09027 -77.51849 1087 ft 146 kts 135°
2026-05-06 04:43 25.08298 -77.51042 691 ft 148 kts 135°
2026-05-06 04:43 25.07547 -77.50208 679 ft 157 kts 134°
2026-05-06 04:43 25.06788 -77.49349 517 ft 156 kts 134°
2026-05-06 04:44 25.06029 -77.48505 281 ft 152 kts 135°
2026-05-06 04:44 25.05283 -77.47683 125 ft 146 kts 135°
2026-05-06 04:44 25.04605 -77.46928 32 ft 131 kts 134°
2026-05-06 04:44 25.04029 -77.46286 23 ft 78 kts 135°
2026-05-06 04:45 25.03823 -77.46047 24 ft 28 kts 131°
2026-05-06 04:45 25.03775 -77.45922 25 ft 14 kts 48°
2026-05-06 04:45 25.03850 -77.45855 25 ft 12 kts
2026-05-06 04:45 25.03926 -77.45914 24 ft 14 kts 312°
2026-05-06 04:46 25.04004 -77.46002 23 ft 17 kts 316°
2026-05-06 04:46 25.04098 -77.46107 22 ft 20 kts 314°
2026-05-06 04:46 25.04197 -77.46220 23 ft 21 kts 315°
2026-05-06 04:46 25.04344 -77.46378 27 ft 38 kts 315°
2026-05-06 04:47 25.04538 -77.46590 25 ft 39 kts 314°
2026-05-06 04:47 25.04659 -77.46727 23 ft 16 kts 321°
2026-05-06 04:47 25.04748 -77.46695 24 ft 12 kts 42°
2026-05-06 04:47 25.04794 -77.46645 26 ft 8 kts 43°
2026-05-06 04:48 25.04821 -77.46606 27 ft 2 kts 70°
2026-05-06 04:48 25.04828 -77.46590 28 ft 2 kts 55°
2026-05-06 04:48 25.04837 -77.46581 28 ft 0 kts 24°